Regional Weather Roundup
Issued by NWS State College, PA

Home | Current Version | Previous Version | Text Only | Print | Product List | Glossary On
Versions: 1 2 3 4 5 6 7 8 9 10 11 12 13 14 15 16 17 18 19 20 21 22 23 24 25 26 27 28 29 30 31 32 33 34 35 36 37 38 39 40 41 42 43 44 45 46 47 48 49 50
000
ASUS41 KCTP 221310
RWRCTP

REGIONAL WEATHER ROUNDUP
NATIONAL WEATHER SERVICE STATE COLLEGE PA
900 AM EDT MON MAY 22 2017

Note: "fair" indicates few or no clouds below 12,000 feet with no
significant weather and/or obstructions to visibility.

* = STATION THAT DOES NOT REPORT PRECIPITATION /E.G. RAIN...SNOW...ETC/
    THUNDER OR FOG.

PAZ002>004-007>009-013>016-020>023-029>032-221400-
WESTERN PENNSYLVANIA

CITY           SKY/WX    TMP DP  RH WIND       PRES   REMARKS
ERIE           CLOUDY    57  49  74 W16G23    29.99S
MEADVILLE      CLOUDY    58  53  84 W7        30.00S
FRANKLIN*      MOSUNNY   59  54  82 W6        30.01F
NEW CASTLE     CLOUDY    60  54  80 W8        30.03R
BEAVER COUNTY  CLOUDY    59  55  88 W8        30.02S
BUTLER*        MOSUNNY   61  55  82 W5        30.02F
PITTSBURGH INT PTSUNNY   62  57  83 W10       30.02S
PITTSBURGH     CLOUDY    62  57  83 NW8       30.02S
INDIANA*       NOT AVBL
LATROBE        CLOUDY    63  63 100 W12       30.02R
WASHINGTON CO* MOSUNNY   61  55  82 NW9       30.06R
$$

PAZ004>006-010>012-017>019-024>028-033>037-041-042-045-046-049>053-221400-
CENTRAL PENNSYLVANIA

CITY           SKY/WX    TMP DP  RH WIND       PRES   REMARKS
BRADFORD       LGT RAIN  56  56 100 VRB5      30.00S FOG
DUBOIS         LGT RAIN  58  56  93 W8        30.00R FOG
CLEARFIELD     LGT RAIN  57  56  96 N3        30.02S
JOHNSTOWN      CLOUDY    60  57  89 S12       30.02F
ALTOONA        LGT RAIN  62  56  80 S8        30.05S
STATE COLLEGE  CLOUDY    59  52  77 S6        30.04S
WILLIAMSPORT   CLOUDY    59  51  75 E9        30.05F
SELINSGROVE    CLOUDY    60  53  77 S8        30.07F
FT INDIANTOWN  CLOUDY    56  56  99 E3        30.09F
CAPITAL CITY   LGT RAIN  58  54  86 SE8       30.09F
HARRISBURG     CLOUDY    57  56  96 SE8       30.09S
YORK           CLOUDY    57  57 100 E5        30.08F
$$

PAZ038>040-043-044-047-048-054-055-060>062-067>071-221400-
EASTERN PENNSYLVANIA

CITY           SKY/WX    TMP DP  RH WIND       PRES   REMARKS
SCRANTON       CLOUDY    59  51  75 VRB3      30.07F
MOUNT POCONO   CLOUDY    49  49 100 SE6       30.11S FOG
ALLENTOWN      CLOUDY    56  51  84 SE7       30.12F
QUAKERTOWN*    CLOUDY    54  54 100 CALM      30.13F
READING        CLOUDY    57  54  89 CALM      30.10F
LANCASTER      LGT RAIN  57  56  96 E7        30.09F
COATESVILLE    FOG       55  55 100 E6G12     30.12F VSB 1
POTTSTOWN      LGT RAIN  54  53  97 E5        30.13F FOG
BLUE BELL      CLOUDY    54  54 100 E3        30.13F
DOYLESTOWN     CLOUDY    54  53  97 CALM      30.12F
WILLOW GROVE   NOT AVBL
NORTH PHILA    LGT RAIN  58  56  93 E7        30.14F FOG
PHILADELPHIA   LGT RAIN  58  56  93 E7        30.12F
$$



USA.gov is the U.S. government's official web portal to all federal, state and local government web resources and services.